Starlink 30235

operational
NORAD ID: 57294 Int'l Des: 2023-096 Owner: SPXS Country: US Constellation: starlink
LEOCIRCULAR

Über Starlink 30235

Beschreibung wird geladen...

Live-Position

3D-Globus wird geladen...

Nächste Überflüge

Höhenverlauf

Altitude vs Time

uPlot chart will show altitude changes over time

Zweizeiliger Elementsatz

1 57294U 23096E 25259.24314664 .00000513 00000-0 53015-4 0 9997
2 57294 43.0027 91.2691 0001054 265.2274 94.8448 15.02534405121371
Epoch: 16. Sept. 2025 • Age: 54 hours

Aktueller Status

Höhe 568.4 km
Geschwindigkeit 7.58 km/s
Subsatellitenpunkt -34.50°S, 135.65°E
Startdatum 10. Juli 2023
Alter 2.1 years
Typ internet

Technische Details

Klassifizierung Payload
Masse 730.00 kg
Trockenmasse 700.00 kg
Gesamtmasse 730.00 kg
Länge 0.30 m
Durchmesser 4.10 m
Spannweite 29.00 m
Form Box + pan
Hersteller SPXS
Bus-Typ Starlink V2M
Phasenstatus In Orbit
Besitzer/Staat SPXS/US

Große Konstellationen

Loading constellations...